Zurück zum Katalog

DELTA 1 DEB

AktivUNKNOWN
NORAD 28979·DEBRIS·🇺🇸 United States

Gestartet Jul 29, 1976 von Vandenberg Space Force Base

Loading…

Nächste Überflüge (nächste 24 Stunden)

TLE

AktuellSource: Space-Track

Epoche: Sep 13, 2026, 18:15 UTC

1 28979U 76077FU  26256.76072203 -.00000001  00000-0  61894-3 0  9993
2 28979 102.0330 354.6378 0802759 183.0076 176.5887 10.95268112893140

Verfolge DELTA 1 DEB in Echtzeit mit AllMySat

Download on the App Store